ART6H4 ESGG-ESSA

Flight info

Callsign ART6H4
Flight time 0h 37m
Altitude 29000
Route LABAN N873 ARS T317 ELTOK
Aircraft A20N/M-SDE2E3FGHIRWXY/LB1

Departure

Time 2026-05-06 16:01
Airport Göteborg Landvetter Airport (ESGG)

Arrival

Time 2026-05-06 16:38
Airport Stockholm-Arlanda Airport (ESSA)
Time Latitude Longitude Altitude Speed Heading
2026-05-06 15:24 57.66728 12.29277 512 ft 0 kts 116°
2026-05-06 15:47 57.66728 12.29276 512 ft 0 kts 116°
2026-05-06 15:48 57.66732 12.29259 512 ft 2 kts 111°
2026-05-06 15:48 57.66739 12.29234 512 ft 2 kts 117°
2026-05-06 15:48 57.66745 12.29209 511 ft 2 kts 115°
2026-05-06 15:48 57.66752 12.29184 511 ft 2 kts 116°
2026-05-06 15:49 57.66756 12.29167 511 ft 1 kts 116°
2026-05-06 15:49 57.66758 12.29142 511 ft 2 kts 70°
2026-05-06 15:49 57.66751 12.29123 511 ft 0 kts 30°
2026-05-06 15:49 57.66745 12.29118 511 ft 1 kts 24°
2026-05-06 15:50 57.66743 12.29117 511 ft 0 kts 25°
2026-05-06 15:52 57.66749 12.29121 511 ft 2 kts 19°
2026-05-06 15:53 57.66773 12.29101 511 ft 6 kts 311°
2026-05-06 15:53 57.66799 12.28996 510 ft 11 kts 295°
2026-05-06 15:53 57.66827 12.28848 510 ft 13 kts 252°
2026-05-06 15:53 57.66742 12.28743 509 ft 17 kts 205°
2026-05-06 15:54 57.66622 12.28632 509 ft 20 kts 206°
2026-05-06 15:54 57.66481 12.28505 508 ft 24 kts 206°
2026-05-06 15:54 57.66320 12.28359 508 ft 26 kts 206°
2026-05-06 15:54 57.66147 12.28201 507 ft 28 kts 205°
2026-05-06 15:55 57.65970 12.28041 506 ft 27 kts 206°
2026-05-06 15:55 57.65800 12.27885 505 ft 26 kts 206°
2026-05-06 15:55 57.65633 12.27733 503 ft 26 kts 206°
2026-05-06 15:55 57.65468 12.27583 501 ft 26 kts 205°
2026-05-06 15:56 57.65303 12.27435 497 ft 26 kts 206°
2026-05-06 15:56 57.65135 12.27280 493 ft 27 kts 206°
2026-05-06 15:56 57.65019 12.27151 490 ft 13 kts 244°
2026-05-06 15:56 57.65026 12.27067 489 ft 0 kts 311°
2026-05-06 15:59 57.65039 12.27046 489 ft 4 kts 324°
2026-05-06 15:59 57.65077 12.27017 489 ft 7 kts 342°
2026-05-06 16:00 57.65135 12.26982 489 ft 9 kts 344°
2026-05-06 16:00 57.65265 12.27054 491 ft 39 kts 25°
2026-05-06 16:00 57.65741 12.27486 502 ft 110 kts 25°
2026-05-06 16:00 57.66611 12.28282 538 ft 164 kts 24°
2026-05-06 16:01 57.67642 12.29257 1121 ft 169 kts 24°
2026-05-06 16:01 57.68691 12.30238 1817 ft 175 kts 24°
2026-05-06 16:01 57.69824 12.31276 2339 ft 192 kts 25°
2026-05-06 16:01 57.70956 12.32798 2848 ft 212 kts 43°
2026-05-06 16:02 57.71965 12.34951 3335 ft 234 kts 49°
2026-05-06 16:02 57.73054 12.37361 3964 ft 250 kts 49°
2026-05-06 16:02 57.74221 12.39896 4587 ft 267 kts 49°
2026-05-06 16:02 57.75430 12.42500 5461 ft 272 kts 50°
2026-05-06 16:03 57.76665 12.45172 6459 ft 273 kts 50°
2026-05-06 16:03 57.77891 12.47804 7415 ft 274 kts 50°
2026-05-06 16:03 57.79148 12.50500 8279 ft 279 kts 49°
2026-05-06 16:03 57.80449 12.53194 9116 ft 284 kts 48°
2026-05-06 16:04 57.81791 12.55948 9961 ft 288 kts 47°
2026-05-06 16:04 57.83144 12.58730 10593 ft 298 kts 47°
2026-05-06 16:04 57.84579 12.61686 11006 ft 316 kts 47°
2026-05-06 16:04 57.86092 12.64807 11459 ft 331 kts 46°
2026-05-06 16:05 57.87634 12.67991 12138 ft 337 kts 47°
2026-05-06 16:05 57.89211 12.71257 12879 ft 341 kts 46°
2026-05-06 16:05 57.90818 12.74592 13589 ft 346 kts 46°
2026-05-06 16:05 57.92424 12.77925 14269 ft 351 kts 46°
2026-05-06 16:06 57.94078 12.81359 14739 ft 355 kts 46°
2026-05-06 16:06 57.95737 12.84806 14879 ft 357 kts 46°
2026-05-06 16:06 57.97403 12.88277 14994 ft 361 kts 46°
2026-05-06 16:06 57.99073 12.91762 15614 ft 365 kts 46°
2026-05-06 16:07 58.00782 12.95337 16349 ft 367 kts 46°
2026-05-06 16:07 58.02486 12.98908 16993 ft 372 kts 45°
2026-05-06 16:07 58.04225 13.02560 17555 ft 378 kts 45°
2026-05-06 16:07 58.05983 13.06252 18129 ft 383 kts 45°
2026-05-06 16:08 58.07773 13.10020 18689 ft 388 kts 45°
2026-05-06 16:08 58.09562 13.13792 19264 ft 393 kts 45°
2026-05-06 16:08 58.11380 13.17629 19807 ft 398 kts 45°
2026-05-06 16:08 58.13233 13.21550 20309 ft 404 kts 45°
2026-05-06 16:09 58.15104 13.25519 20814 ft 409 kts 45°
2026-05-06 16:09 58.17001 13.29548 21320 ft 414 kts 46°
2026-05-06 16:09 58.18900 13.33678 21807 ft 420 kts 46°
2026-05-06 16:09 58.20815 13.37919 22316 ft 426 kts 47°
2026-05-06 16:10 58.22749 13.42225 22809 ft 431 kts 47°
2026-05-06 16:10 58.24695 13.46561 23256 ft 436 kts 46°
2026-05-06 16:10 58.26656 13.50936 23717 ft 441 kts 46°
2026-05-06 16:10 58.28635 13.55351 24203 ft 445 kts 47°
2026-05-06 16:11 58.30639 13.59824 24793 ft 447 kts 47°
2026-05-06 16:11 58.32623 13.64264 25424 ft 446 kts 47°
2026-05-06 16:11 58.34638 13.68772 26085 ft 444 kts 49°
2026-05-06 16:11 58.36602 13.73182 26690 ft 444 kts 49°
2026-05-06 16:12 58.38604 13.77693 27278 ft 444 kts 49°
2026-05-06 16:12 58.40581 13.82159 27765 ft 445 kts 49°
2026-05-06 16:12 58.42592 13.86701 28174 ft 449 kts 49°
2026-05-06 16:12 58.44578 13.91205 28532 ft 453 kts 50°
2026-05-06 16:13 58.46610 13.95813 28870 ft 456 kts 50°
2026-05-06 16:13 58.48647 14.00446 28911 ft 458 kts 50°
2026-05-06 16:13 58.52727 14.09755 28921 ft 458 kts 50°
2026-05-06 16:14 58.56799 14.19083 28926 ft 460 kts 50°
2026-05-06 16:14 58.60880 14.28456 28931 ft 460 kts 50°
2026-05-06 16:15 58.64972 14.37883 28932 ft 460 kts 50°
2026-05-06 16:15 58.69029 14.47281 28933 ft 460 kts 50°
2026-05-06 16:16 58.73099 14.56731 28928 ft 461 kts 50°
2026-05-06 16:16 58.77179 14.66263 28929 ft 462 kts 51°
2026-05-06 16:17 58.81255 14.75813 28929 ft 463 kts 51°
2026-05-06 16:17 58.85322 14.85379 28928 ft 462 kts 51°
2026-05-06 16:18 58.89356 14.94916 28931 ft 463 kts 51°
2026-05-06 16:18 58.93425 15.04572 28936 ft 463 kts 51°
2026-05-06 16:19 58.97455 15.14175 28933 ft 464 kts 51°
2026-05-06 16:19 59.01526 15.23911 28936 ft 464 kts 51°
2026-05-06 16:20 59.05549 15.33575 28924 ft 465 kts 51°
2026-05-06 16:20 59.07569 15.38450 28599 ft 464 kts 51°
2026-05-06 16:20 59.09593 15.43336 28152 ft 461 kts 50°
2026-05-06 16:21 59.11577 15.48146 27637 ft 460 kts 50°
2026-05-06 16:21 59.13576 15.52990 27086 ft 459 kts 50°
2026-05-06 16:21 59.15551 15.57793 26521 ft 460 kts 50°
2026-05-06 16:21 59.17530 15.62622 25911 ft 460 kts 49°
2026-05-06 16:22 59.19538 15.67517 25230 ft 462 kts 50°
2026-05-06 16:22 59.21530 15.72384 24531 ft 463 kts 50°
2026-05-06 16:22 59.23521 15.77260 23835 ft 465 kts 50°
2026-05-06 16:22 59.25517 15.82162 23248 ft 463 kts 50°
2026-05-06 16:23 59.27512 15.87072 22662 ft 460 kts 49°
2026-05-06 16:23 59.29489 15.91951 22052 ft 458 kts 49°
2026-05-06 16:23 59.31458 15.96816 21441 ft 456 kts 50°
2026-05-06 16:23 59.33408 16.01648 20884 ft 451 kts 50°
2026-05-06 16:24 59.35321 16.06402 20433 ft 445 kts 49°
2026-05-06 16:24 59.37210 16.11107 19948 ft 439 kts 49°
2026-05-06 16:24 59.39094 16.15804 19392 ft 436 kts 49°
2026-05-06 16:24 59.40936 16.20402 18910 ft 430 kts 49°
2026-05-06 16:25 59.42757 16.24961 18434 ft 425 kts 49°
2026-05-06 16:25 59.44574 16.29513 17963 ft 419 kts 49°
2026-05-06 16:25 59.46356 16.33987 17511 ft 413 kts 49°
2026-05-06 16:25 59.48087 16.38344 17096 ft 407 kts 49°
2026-05-06 16:26 59.49818 16.42706 16653 ft 402 kts 49°
2026-05-06 16:26 59.51516 16.46992 16213 ft 397 kts 49°
2026-05-06 16:26 59.53196 16.51242 15807 ft 391 kts 49°
2026-05-06 16:26 59.54854 16.55448 15355 ft 388 kts 49°
2026-05-06 16:27 59.56484 16.59587 14913 ft 384 kts 49°
2026-05-06 16:27 59.58100 16.63704 14445 ft 381 kts 52°
2026-05-06 16:27 59.59261 16.68407 13863 ft 384 kts 70°
2026-05-06 16:27 59.60028 16.73412 13284 ft 384 kts 73°
2026-05-06 16:28 59.60751 16.78413 12702 ft 383 kts 73°
2026-05-06 16:28 59.61518 16.83399 12124 ft 381 kts 71°
2026-05-06 16:28 59.62332 16.88374 11545 ft 379 kts 71°
2026-05-06 16:28 59.63170 16.93305 11000 ft 377 kts 70°
2026-05-06 16:29 59.64013 16.98161 10420 ft 375 kts 70°
2026-05-06 16:29 59.64852 17.02954 9849 ft 373 kts 70°
2026-05-06 16:29 59.65696 17.07753 9254 ft 370 kts 70°
2026-05-06 16:29 59.66540 17.12550 8648 ft 367 kts 70°
2026-05-06 16:30 59.67361 17.17235 8072 ft 364 kts 70°
2026-05-06 16:30 59.67909 17.20363 7677 ft 362 kts 70°
2026-05-06 16:30 59.68993 17.26577 6904 ft 358 kts 70°
2026-05-06 16:30 59.69793 17.31169 6318 ft 354 kts 70°
2026-05-06 16:31 59.70592 17.35752 5765 ft 350 kts 70°
2026-05-06 16:31 59.71371 17.40240 5359 ft 341 kts 71°
2026-05-06 16:31 59.72116 17.44547 5198 ft 326 kts 71°
2026-05-06 16:31 59.72834 17.48719 5158 ft 308 kts 71°
2026-05-06 16:32 59.73496 17.52579 5088 ft 291 kts 71°
2026-05-06 16:32 59.74130 17.56271 5053 ft 276 kts 71°
2026-05-06 16:32 59.74780 17.59732 5004 ft 262 kts 66°
2026-05-06 16:32 59.75526 17.62934 4983 ft 247 kts 65°
2026-05-06 16:33 59.76265 17.65983 4701 ft 245 kts 65°
2026-05-06 16:33 59.77004 17.69018 4399 ft 244 kts 66°
2026-05-06 16:33 59.77682 17.72033 4101 ft 242 kts 72°
2026-05-06 16:34 59.78643 17.78292 3621 ft 232 kts 77°
2026-05-06 16:34 59.79074 17.81367 3377 ft 228 kts 81°
2026-05-06 16:34 59.79191 17.84427 3082 ft 224 kts 98°
2026-05-06 16:34 59.78867 17.87418 2790 ft 219 kts 114°
2026-05-06 16:35 59.78160 17.90048 2507 ft 215 kts 129°
2026-05-06 16:35 59.77150 17.92176 2231 ft 211 kts 143°
2026-05-06 16:35 59.75963 17.93656 1964 ft 208 kts 157°
2026-05-06 16:35 59.74648 17.94501 1686 ft 195 kts 170°
2026-05-06 16:36 59.73343 17.94693 1436 ft 184 kts 182°
2026-05-06 16:36 59.72124 17.94375 1292 ft 167 kts 188°
2026-05-06 16:36 59.71034 17.93976 1054 ft 154 kts 190°
2026-05-06 16:36 59.70029 17.93583 827 ft 140 kts 190°
2026-05-06 16:37 59.69112 17.93251 606 ft 129 kts 189°
2026-05-06 16:37 59.68240 17.92940 460 ft 128 kts 188°
2026-05-06 16:37 59.67359 17.92629 292 ft 129 kts 187°
2026-05-06 16:37 59.66488 17.92317 135 ft 126 kts 188°
2026-05-06 16:38 59.65731 17.92045 108 ft 89 kts 190°
2026-05-06 16:38 59.65286 17.91895 105 ft 40 kts 184°
2026-05-06 16:38 59.65087 17.91957 106 ft 17 kts 158°
2026-05-06 16:38 59.65032 17.92001 107 ft 6 kts 158°
2026-05-06 16:39 59.64999 17.92029 108 ft 4 kts 156°
2026-05-06 16:39 59.64974 17.92065 109 ft 4 kts 130°
2026-05-06 16:39 59.64963 17.92131 110 ft 5 kts 96°
2026-05-06 16:39 59.64965 17.92225 110 ft 7 kts 86°
2026-05-06 16:40 59.64954 17.92298 110 ft 5 kts 178°
2026-05-06 16:40 59.64908 17.92282 111 ft 7 kts 193°
2026-05-06 16:40 59.64848 17.92253 111 ft 9 kts 192°
2026-05-06 16:40 59.64779 17.92228 112 ft 10 kts 191°
2026-05-06 16:41 59.64727 17.92261 112 ft 2 kts 143°
2026-05-06 16:41 59.64702 17.92237 112 ft 7 kts 215°
2026-05-06 16:41 59.64629 17.92173 113 ft 14 kts 192°
2026-05-06 16:41 59.64526 17.92137 113 ft 15 kts 190°
2026-05-06 16:42 59.64424 17.92101 114 ft 15 kts 185°
2026-05-06 16:42 59.64359 17.92231 114 ft 14 kts 95°
2026-05-06 16:42 59.64414 17.92374 114 ft 11 kts 31°
2026-05-06 16:42 59.64476 17.92407 113 ft 7 kts 359°
2026-05-06 16:43 59.64500 17.92406 113 ft 0 kts 358°
2026-05-06 16:43 59.64501 17.92406 113 ft 0 kts 358°